Location: C�mpuri de-Sus
(45.9500°N, 22.5500°E)
Time: 05:53:05
(UTC+00:00)

Cosmos 2219 Rocket - Pass Details

Date: 24 October 2021
Orbit: 826 x 848 km, 71.0° (Epoch: 04 December)

Event Time Altitude Azimuth Distance (km) Brightness Sun altitude
Rises 16:29:43 0° 148° (SSE) 3,353 5.0 -11.3°
Reaches altitude 10° 16:33:40 10° 120° (ESE) 2,429 4.1 -12.0°
Enters shadow 16:33:48 10° 119° (ESE) 2,411 4.1 -12.0°
